Wind_Speed
49 45 40 43 32 34 34 32 25 24 23 23 24 20 19 16 17 17 19 19 19 15 13 14 16 15 13 11 14 16 17 22 20 27 32 37 35 32 26 19 15 14 19 16 14 16 16
50 46 41 38 33 36 35 26 24 24 23 24 22 20 22 20 17 17 18 18 19 16 14 17 15 12 15 17 18 23 28 22 31 37 36 35 30 29 30 21 18 15 19 13 21 19 15
45 42 39 37 33 33 28 24 23 21 22 19 20 23 22 17 21 17 16 15 18 15 17 18 18 20 16 15 21 25 22 28 37 39 40 43 40 39 33 19 19 22 13 8 12 14 11
40 35 39 37 33 24 20 23 22 20 18 18 16 16 14 16 17 13 14 15 15 18 18 17 18 13 14 16 21 24 29 33 36 41 40 38 39 39 30 24 22 18 17 16 16 12 10
36 32 37 35 32 22 23 22 21 18 14 15 9 6 9 11 17 15 16 16 16 16 16 15 13 14 15 17 18 17 22 28 16 27 28 31 26 19 17 18 16 15 18 17 15 9 3
32 32 36 32 31 22 25 21 19 16 9 8 9 6 4 8 15 18 18 16 15 14 14 15 16 16 18 16 18 19 20 17 14 20 14 17 15 14 24 21 18 14 15 15 13 5 1
33 31 35 28 24 25 22 19 17 15 14 12 8 9 10 12 10 20 18 16 17 20 21 19 22 21 20 19 18 19 21 22 21 21 22 23 24 27 23 20 16 7 6 7 6 3 4
34 32 31 23 23 24 20 19 16 17 15 10 8 11 13 16 19 22 23 24 24 24 22 20 20 20 21 20 20 19 21 22 23 28 28 25 25 23 22 18 12 8 11 9 3 5 10
34 33 28 23 24 22 21 18 17 18 17 10 9 13 17 21 23 23 25 25 25 23 24 23 22 20 19 17 18 18 17 20 24 24 20 19 19 20 16 12 12 14 18 16 14 9 12
33 33 26 23 27 23 23 20 19 16 15 9 15 20 23 25 27 28 29 30 28 27 26 22 20 20 19 17 17 17 15 15 15 14 15 14 14 12 9 8 7 8 14 17 14 13 15
35 30 27 28 30 26 22 23 19 16 14 17 24 26 30 32 33 31 30 29 28 28 26 23 21 19 19 16 17 18 17 15 12 11 15 12 12 11 11 10 9 11 14 16 17 16 15
37 31 28 33 33 29 26 25 18 18 18 28 32 34 35 35 33 32 30 29 27 25 23 21 19 18 16 15 13 14 17 17 15 14 13 13 11 10 10 10 11 12 14 16 18 18 18
36 34 32 36 33 31 30 25 21 22 29 36 36 37 36 35 34 32 30 28 24 21 21 19 17 15 14 12 12 13 12 11 11 13 14 12 10 9 9 10 10 9 10 11 13 14 19
38 35 37 38 34 32 33 26 25 30 38 40 39 38 37 36 34 32 30 25 20 21 18 16 14 12 11 12 13 13 14 14 15 12 11 12 10 9 8 5 3 3 2 3 5 6 11
39 36 39 38 36 35 33 30 29 37 42 43 41 40 38 37 35 33 29 22 18 18 16 13 10 10 11 13 14 13 14 15 14 12 10 10 9 7 5 4 2 1 2 2 4 7 12
40 40 41 39 38 38 33 32 35 42 45 44 43 41 40 38 36 32 27 23 18 14 8 6 6 8 11 13 14 15 15 14 12 11 11 11 8 6 6 6 4 3 6 8 8 6 11
42 43 41 38 40 39 35 36 39 46 47 46 45 43 41 39 36 31 27 22 15 10 7 4 2 6 10 12 13 14 14 14 13 12 10 10 10 9 8 6 3 3 4 8 11 13 13
40 45 42 40 41 37 37 39 44 50 49 47 46 44 43 40 35 30 26 21 15 9 5 4 3 3 7 7 8 12 14 15 14 13 12 10 10 10 7 4 3 2 4 7 10 15 17
45 45 44 41 40 37 39 41 47 52 49 47 46 45 44 39 35 29 26 20 13 10 5 4 3 4 7 7 12 15 16 17 16 15 14 12 10 6 5 7 6 5 8 11 14 18 20
48 46 44 41 40 37 41 44 50 53 50 48 48 47 44 40 34 31 27 19 12 10 6 5 6 7 8 10 14 16 17 17 15 15 13 12 9 8 7 8 9 11 16 16 18 20 20
47 49 45 40 39 37 43 46 52 55 53 49 48 45 42 39 35 30 24 18 14 10 8 6 7 9 9 11 13 15 16 16 17 16 13 11 10 10 9 11 13 15 17 20 22 24 24
48 49 43 40 39 38 45 49 54 56 54 50 47 46 43 40 36 30 23 19 15 13 10 9 8 9 11 9 12 15 15 15 17 16 15 15 13 13 14 16 16 17 19 22 24 26 28
54 49 43 41 38 39 44 49 55 56 54 51 48 45 43 40 35 32 28 23 19 17 15 12 9 11 14 12 14 18 19 21 22 21 20 19 18 19 19 21 22 21 24 26 28 30 31
53 46 43 41 37 39 44 49 54 55 54 52 48 44 42 40 36 33 29 26 24 20 18 15 13 11 13 18 20 19 21 23 23 23 23 22 23 23 23 25 26 26 27 30 32 31 34
50 46 43 40 37 40 44 48 52 55 54 52 49 45 43 41 39 37 34 34 28 23 20 18 15 13 17 22 24 21 21 25 25 26 27 27 27 28 28 28 29 29 31 35 35 34 38
50 47 44 41 37 39 43 46 50 51 51 52 50 47 44 43 41 39 37 34 30 27 24 23 20 18 20 23 25 25 26 26 28 29 29 31 31 32 32 33 34 33 35 37 39 38 39
51 48 45 40 37 38 41 44 46 48 50 52 49 46 45 43 41 39 37 35 33 29 28 28 27 25 24 25 27 29 30 30 30 30 31 33 35 36 35 37 37 37 38 42 42 41 45
51 48 45 41 37 36 37 39 41 45 47 48 47 46 45 43 42 42 39 37 35 33 33 32 31 29 30 30 31 32 34 34 34 34 33 36 38 37 38 38 39 40 43 44 44 45 48
51 48 44 41 37 35 34 34 37 40 42 43 42 42 43 42 42 42 41 40 39 39 38 38 37 35 36 34 34 35 36 37 37 38 36 37 38 39 38 38 39 43 45 46 44 48 52
Wind_Direction
289 296 303 300 292 300 299 294 265 270 271 276 278 277 284 276 250 244 235 235 243 225 231 220 211 208 212 204 190 194 182 165 165 152 155 154 162 160 149 167 189 171 179 195 227 244 251
286 293 300 293 294 298 297 276 265 268 274 278 278 279 280 275 240 237 238 238 228 218 222 201 199 197 196 199 191 178 166 173 163 160 158 163 167 166 174 181 189 204 177 213 231 230 264
285 291 293 292 294 299 290 257 263 268 280 278 275 276 280 246 235 237 237 213 199 206 198 191 197 203 206 194 185 189 188 171 170 167 168 173 178 178 188 191 206 211 215 180 167 205 206
283 285 288 289 292 290 267 261 264 271 279 287 292 269 255 239 218 198 193 189 191 196 204 209 213 216 185 175 195 191 170 176 177 171 169 171 175 183 194 195 214 206 172 159 158 169 178
277 280 282 287 287 268 256 258 262 270 277 300 243 255 221 216 204 190 178 183 192 198 206 212 192 176 167 162 167 173 172 179 175 185 172 184 188 175 174 142 132 146 169 159 152 114 201
266 275 278 287 282 246 243 251 260 260 244 294 230 243 229 183 177 179 179 184 183 193 178 159 156 153 144 153 156 164 165 165 169 183 179 171 152 156 146 145 145 153 160 155 134 76 118
263 266 275 279 263 239 238 242 247 243 246 260 221 237 227 209 176 167 176 182 171 156 148 152 148 147 152 156 159 159 163 167 170 171 155 150 158 161 151 148 142 174 175 168 116 198 254
259 261 270 268 246 231 234 236 232 226 241 246 249 219 208 189 181 171 164 161 158 148 146 147 147 150 145 144 141 143 144 148 156 164 174 165 165 167 169 179 172 214 211 216 190 320 287
246 254 259 252 230 227 231 224 215 223 238 236 238 203 186 173 165 157 151 148 143 141 136 140 139 136 128 128 130 133 143 149 164 178 171 163 180 184 177 183 185 216 213 221 229 264 263
235 245 246 231 223 225 219 212 219 219 214 228 193 177 161 154 151 147 141 140 141 142 140 146 145 140 136 143 142 145 155 163 177 179 180 189 178 172 161 199 187 197 223 239 252 249 251
228 228 229 218 215 219 210 208 217 212 208 189 170 157 149 146 144 144 147 149 147 145 145 146 144 143 144 149 158 163 173 177 195 187 188 185 185 182 187 208 214 216 219 226 237 241 245
223 217 218 212 212 209 201 210 208 199 188 173 160 157 152 150 150 151 153 153 146 142 143 146 145 147 148 153 162 173 183 182 183 187 182 185 189 196 209 221 237 244 251 253 254 255 254
212 214 206 206 211 204 199 205 203 189 183 166 164 160 157 155 153 155 156 153 147 150 148 150 152 154 156 166 174 183 188 197 192 193 193 201 210 220 233 238 248 252 250 254 260 259 248
208 208 198 205 206 201 200 201 198 183 177 167 169 164 164 161 162 159 158 153 153 155 156 154 158 174 180 193 195 195 195 195 200 198 209 217 210 213 215 221 208 233 257 289 292 275 257
203 203 199 202 201 197 200 199 194 183 176 169 172 169 168 168 168 164 166 162 150 158 160 176 184 198 211 209 203 194 202 203 202 195 181 200 199 185 171 167 145 71 19 342 299 277 267
201 202 198 199 198 197 198 196 189 185 176 172 176 174 174 175 172 171 172 171 168 156 173 205 229 221 211 204 198 193 202 190 183 183 172 167 169 166 149 140 110 87 73 47 27 350 304
198 196 197 198 197 197 198 195 188 185 177 177 179 178 179 179 177 177 178 178 180 188 210 237 270 215 199 201 194 188 190 189 179 170 170 164 155 153 155 139 113 84 45 29 24 22 359
199 195 197 197 195 196 198 194 187 185 179 180 182 183 183 183 182 182 184 184 196 213 231 276 279 214 187 197 179 185 179 174 174 174 168 166 159 165 180 194 247 300 5 2 359 5 4
199 190 196 195 197 199 199 192 186 185 181 183 186 187 187 187 187 187 193 187 183 224 238 278 253 213 190 171 170 174 173 176 179 177 170 170 175 185 209 239 264 296 320 322 334 338 341
195 192 196 195 197 200 198 191 186 185 184 186 190 191 190 191 190 196 200 198 202 220 240 259 232 210 200 188 182 182 183 182 182 180 181 185 197 216 236 251 286 311 314 322 327 329 330
202 191 193 195 198 200 196 190 186 186 186 189 193 195 195 198 196 202 204 208 211 226 237 247 252 219 213 203 197 197 193 191 189 191 200 212 228 245 263 275 285 298 310 316 321 324 324
190 186 190 194 196 197 193 189 188 188 190 192 194 197 198 202 202 209 210 216 225 233 246 250 258 230 230 221 206 212 208 209 206 210 219 234 249 261 273 280 287 296 302 306 310 317 322
191 186 190 194 196 195 192 190 190 191 193 196 198 201 202 207 207 209 214 221 232 236 247 257 274 231 230 228 220 215 217 217 216 220 231 241 254 266 272 279 283 290 299 303 309 318 322
181 183 188 194 196 195 192 192 192 194 195 198 200 203 206 209 210 216 221 231 233 237 249 258 270 256 234 233 235 231 229 230 233 235 243 251 259 267 275 279 284 291 299 302 309 316 318
179 182 187 190 193 193 193 192 194 196 199 201 204 203 206 209 214 219 222 229 234 241 247 255 262 250 236 236 244 250 246 240 240 244 249 253 260 268 273 277 283 291 297 303 307 318 316
180 183 187 189 190 191 192 193 194 198 200 204 208 208 209 212 217 221 226 234 240 245 249 254 254 253 246 243 247 252 257 252 248 249 251 257 262 267 273 279 285 291 296 300 308 313 312
181 183 185 187 189 189 192 194 194 198 203 208 210 212 214 215 221 227 233 238 244 249 251 255 261 262 263 253 252 254 258 260 259 259 258 260 264 269 275 280 285 291 296 299 306 310 312
182 183 186 186 188 190 192 195 197 199 205 210 211 215 219 222 225 230 234 240 244 248 252 256 258 261 260 256 257 256 258 261 262 261 263 264 267 273 275 281 286 290 293 301 305 309 308
183 186 188 189 189 191 192 195 199 203 206 211 214 217 220 225 230 234 238 241 245 249 251 255 258 259 259 259 260 260 261 263 265 266 266 268 269 273 278 283 289 291 297 301 301 302 303
Height
5765 5765 5763 5759 5757 5756 5754 5752 5752 5751 5751 5750 5749 5748 5748 5748 5749 5751 5753 5755 5756 5758 5759 5760 5762 5766 5770 5773 5775 5778 5781 5783 5787 5791 5795 5799 5803 5805 5810 5814 5815 5817 5821 5822 5823 5824 5828
5758 5759 5756 5752 5751 5750 5748 5747 5747 5747 5746 5745 5744 5743 5744 5744 5745 5748 5749 5751 5753 5755 5757 5759 5762 5764 5767 5770 5773 5775 5777 5782 5786 5788 5792 5797 5800 5805 5808 5810 5811 5815 5822 5824 5824 5825 5827
5749 5751 5750 5746 5745 5743 5742 5742 5743 5743 5742 5741 5738 5738 5737 5739 5742 5743 5745 5747 5751 5754 5756 5758 5760 5762 5766 5769 5771 5774 5778 5782 5784 5788 5792 5798 5801 5805 5807 5810 5812 5816 5821 5822 5823 5826 5826
5743 5743 5743 5740 5739 5736 5738 5739 5740 5739 5738 5736 5731 5732 5732 5735 5738 5741 5744 5747 5750 5753 5755 5758 5759 5763 5765 5768 5771 5773 5776 5782 5784 5789 5793 5798 5801 5805 5808 5812 5815 5817 5820 5822 5822 5824 5825
5737 5736 5736 5734 5733 5731 5733 5735 5736 5736 5735 5732 5730 5731 5732 5735 5737 5739 5743 5746 5749 5752 5755 5757 5760 5762 5766 5769 5772 5777 5780 5784 5788 5791 5796 5800 5802 5807 5811 5812 5814 5816 5819 5821 5822 5822 5822
5728 5728 5728 5728 5727 5726 5729 5731 5732 5732 5733 5731 5731 5731 5733 5735 5737 5740 5742 5746 5749 5752 5755 5758 5761 5765 5768 5772 5774 5777 5781 5786 5792 5797 5799 5802 5804 5806 5809 5812 5814 5815 5817 5819 5819 5822 5821
5720 5721 5721 5721 5721 5722 5725 5726 5728 5729 5729 5730 5730 5731 5733 5735 5737 5739 5743 5747 5752 5754 5756 5761 5763 5766 5769 5773 5777 5779 5783 5788 5792 5798 5800 5800 5803 5806 5810 5813 5813 5813 5815 5816 5817 5820 5822
5713 5713 5714 5716 5716 5719 5720 5722 5725 5726 5726 5727 5728 5730 5732 5734 5736 5738 5742 5747 5751 5756 5760 5763 5767 5770 5772 5776 5778 5781 5784 5789 5793 5796 5797 5800 5802 5806 5807 5810 5812 5812 5814 5816 5817 5820 5820
5702 5704 5708 5710 5712 5714 5717 5719 5722 5723 5724 5726 5726 5728 5730 5733 5737 5742 5746 5751 5755 5759 5761 5766 5770 5773 5775 5779 5782 5785 5788 5790 5793 5795 5798 5802 5804 5804 5807 5808 5811 5812 5813 5815 5817 5819 5817
5692 5696 5701 5704 5707 5710 5713 5716 5719 5720 5723 5723 5726 5728 5731 5735 5742 5745 5749 5754 5757 5762 5765 5770 5772 5775 5777 5780 5783 5786 5789 5792 5794 5797 5800 5802 5802 5805 5806 5808 5810 5812 5812 5813 5814 5816 5815
5682 5688 5693 5697 5702 5706 5709 5713 5716 5718 5721 5723 5727 5731 5735 5740 5743 5748 5753 5757 5760 5763 5767 5772 5773 5776 5778 5782 5784 5786 5788 5791 5795 5798 5801 5802 5802 5803 5804 5806 5808 5809 5810 5811 5811 5812 5813
5674 5680 5686 5691 5697 5701 5705 5709 5713 5716 5719 5724 5729 5733 5738 5742 5746 5751 5755 5760 5763 5767 5769 5772 5775 5777 5780 5782 5785 5787 5788 5790 5793 5796 5798 5799 5800 5802 5803 5804 5806 5807 5808 5807 5807 5808 5808
5665 5673 5677 5684 5691 5696 5701 5706 5710 5714 5719 5724 5730 5736 5741 5745 5749 5753 5758 5762 5765 5767 5772 5775 5777 5779 5781 5783 5784 5786 5788 5790 5793 5795 5796 5797 5799 5800 5801 5802 5802 5803 5803 5803 5803 5802 5801
5657 5666 5670 5678 5685 5690 5696 5702 5707 5712 5718 5724 5731 5737 5742 5746 5750 5754 5759 5763 5765 5768 5772 5775 5777 5779 5781 5782 5783 5785 5786 5788 5789 5792 5794 5796 5798 5798 5799 5800 5800 5800 5801 5801 5800 5799 5799
5650 5658 5664 5672 5679 5685 5691 5698 5704 5710 5717 5723 5732 5737 5742 5746 5750 5755 5760 5763 5766 5770 5772 5775 5777 5778 5779 5779 5782 5783 5784 5786 5788 5790 5794 5794 5795 5796 5798 5798 5799 5799 5799 5799 5798 5796 5794
5643 5650 5658 5666 5673 5680 5686 5693 5700 5708 5715 5723 5731 5736 5741 5745 5750 5755 5759 5763 5766 5770 5772 5774 5774 5775 5776 5777 5779 5781 5782 5785 5787 5789 5791 5793 5794 5796 5796 5797 5798 5798 5798 5797 5795 5794 5790
5636 5644 5652 5660 5668 5675 5682 5689 5697 5705 5713 5721 5729 5734 5739 5744 5750 5755 5758 5762 5766 5769 5770 5771 5772 5772 5774 5775 5777 5779 5781 5783 5785 5788 5790 5792 5793 5796 5796 5796 5796 5796 5796 5794 5793 5792 5789
5630 5638 5647 5655 5663 5670 5677 5685 5693 5703 5711 5720 5727 5732 5737 5743 5750 5754 5757 5761 5765 5766 5768 5769 5770 5771 5772 5773 5775 5777 5779 5782 5785 5787 5789 5791 5792 5793 5795 5794 5794 5794 5793 5792 5790 5788 5786
5625 5632 5642 5650 5658 5665 5673 5681 5690 5700 5709 5718 5724 5730 5736 5742 5748 5753 5756 5760 5764 5765 5767 5768 5768 5769 5771 5773 5775 5777 5779 5781 5783 5785 5787 5789 5791 5792 5792 5793 5792 5791 5790 5789 5786 5783 5780
5620 5628 5638 5645 5654 5661 5669 5678 5687 5698 5706 5715 5721 5728 5734 5740 5746 5750 5754 5759 5762 5763 5765 5766 5767 5768 5770 5772 5774 5776 5778 5780 5782 5784 5785 5787 5789 5790 5790 5790 5789 5787 5784 5784 5782 5780 5778
5613 5623 5633 5642 5650 5658 5666 5674 5684 5694 5703 5711 5719 5726 5733 5739 5744 5748 5752 5756 5759 5761 5763 5764 5765 5766 5769 5771 5773 5775 5777 5779 5780 5782 5783 5785 5786 5787 5787 5786 5785 5783 5781 5778 5775 5773 5771
5610 5621 5630 5639 5647 5655 5662 5670 5680 5691 5699 5708 5716 5722 5730 5735 5739 5746 5750 5753 5756 5758 5760 5762 5763 5765 5768 5770 5773 5773 5775 5777 5779 5780 5781 5782 5782 5783 5782 5781 5780 5778 5777 5774 5771 5768 5764
5608 5618 5627 5636 5645 5652 5659 5668 5677 5687 5697 5705 5712 5720 5727 5732 5738 5742 5746 5750 5753 5755 5757 5759 5761 5762 5765 5768 5769 5769 5771 5772 5774 5776 5776 5778 5777 5777 5777 5776 5774 5774 5771 5767 5764 5762 5758
5605 5616 5626 5635 5643 5649 5657 5665 5674 5684 5693 5702 5709 5717 5724 5730 5735 5740 5744 5745 5748 5752 5754 5756 5757 5759 5762 5763 5764 5766 5767 5769 5770 5771 5772 5772 5772 5772 5771 5769 5768 5767 5764 5760 5757 5755 5750
5604 5615 5625 5633 5641 5647 5654 5663 5672 5681 5689 5698 5705 5714 5719 5725 5730 5734 5738 5739 5744 5748 5751 5752 5754 5756 5757 5757 5759 5760 5762 5764 5766 5766 5766 5766 5765 5765 5764 5762 5761 5759 5756 5752 5749 5747 5740
5604 5615 5624 5632 5639 5646 5653 5661 5669 5677 5686 5694 5701 5708 5714 5720 5724 5728 5733 5736 5740 5744 5746 5747 5749 5751 5752 5752 5753 5754 5755 5756 5757 5759 5760 5759 5758 5758 5756 5754 5752 5751 5748 5743 5741 5740 5733
5604 5614 5623 5631 5638 5644 5651 5659 5666 5675 5682 5689 5697 5704 5710 5715 5719 5724 5728 5732 5735 5739 5741 5742 5743 5745 5746 5746 5747 5748 5748 5749 5750 5751 5753 5751 5749 5748 5747 5745 5744 5741 5738 5734 5733 5732 5723
5603 5613 5622 5630 5637 5644 5650 5657 5664 5671 5678 5685 5693 5698 5704 5709 5714 5717 5722 5726 5729 5732 5734 5736 5737 5739 5739 5740 5740 5741 5740 5740 5741 5742 5742 5742 5740 5740 5738 5736 5735 5732 5728 5726 5722 5718 5713
5603 5612 5621 5628 5636 5643 5649 5655 5662 5668 5674 5681 5688 5693 5698 5704 5708 5711 5715 5719 5722 5724 5727 5727 5729 5731 5730 5732 5732 5732 5732 5732 5733 5732 5733 5732 5731 5729 5730 5727 5724 5720 5718 5715 5710 5707 5703